Regional Weather Roundup
Issued by NWS Cleveland, OH

Home | Current Version | Previous Version | Graphics & Text | Print | Product List | Glossary On
Versions: 1 2 3 4 5 6 7 8 9 10 11 12 13 14 15 16 17 18 19 20 21 22 23 24 25 26 27 28 29 30 31 32 33 34 35 36 37 38 39 40 41 42 43 44 45 46 47 48 49 50
000
ASUS41 KCLE 011802
RWRCLE
OHIO REGIONAL WEATHER ROUNDUP
NATIONAL WEATHER SERVICE CLEVELAND, OH
200 PM EDT TUE SEP 01 2015

NOTE: "FAIR" INDICATES FEW OR NO CLOUDS BELOW 12,000 FEET WITH NO
SIGNIFICANT WEATHER AND/OR OBSTRUCTIONS TO VISIBILITY.

OHZ001>008-015>018-024>027-034-035-043-044-011900-
   NORTHWEST OHIO

CITY           SKY/WX    TMP DP  RH WIND       PRES   REMARKS
DEFIANCE       MOSUNNY   86  68  54 SW7       30.09F
FINDLAY        MOSUNNY   86  68  54 SW8       30.09F
TOLEDO EXPRESS SUNNY     86  69  56 SW9       30.08F HX  90
TOLEDO EXEC    MOSUNNY   87  67  51 SW13      30.09F HX  90
LIMA           MOSUNNY   86  68  54 SW9G16    30.11F
$$

OHZ009>014-019>023-028>033-038-089-011900-
   NORTHEAST OHIO

CITY           SKY/WX    TMP DP  RH WIND       PRES   REMARKS
CLE-HOPKINS    MOSUNNY   83  69  62 N8        30.12S
CLE-LAKEFRONT  SUNNY     82  70  66 N6        30.09F
CUY CO. ARPT   MOSUNNY   86  70  58 NW9       30.11F HX  90
LORAIN-ELYRIA  MOSUNNY   84  68  58 W5        30.10F
ASHTABULA      MOSUNNY   83  69  62 NW8       30.12S
AKRON-CANTON   MOSUNNY   87  64  46 W6        30.12F
WOOSTER        PTSUNNY   84  66  54 SW8       30.12F
MANSFIELD      MOSUNNY   88  65  46 SW10      30.13F HX  90
YOUNGSTOWN     MOSUNNY   86  64  47 W9        30.11F
$$

OHZ042-051>053-060>062-070>072-077>081-011900-
  SOUTHWEST OHIO

CITY           SKY/WX    TMP DP  RH WIND       PRES   REMARKS
CINC-COVINGTON PTSUNNY   87  65  47 S3        30.13F
CINC-LUNKEN    PTSUNNY   84  68  58 S8        30.12F
HAMILTON       MOSUNNY   87  66  49 W5        30.12F
DAYTON         PTSUNNY   81  69  67 SE5       30.14F
WRIGHT-PAT AFB PTSUNNY   84  69  60 VRB3      30.12F
DAYTON GENERAL PTSUNNY   84  66  54 W8        30.13F
WILMINGTON     MOSUNNY   87  66  49 VRB6      30.13F
$$

OHZ036-037-039>041-045>050-054>059-063>069-073>076-082>088-011900-
  CENTRAL AND SOUTHEAST OHIO

CITY           SKY/WX    TMP DP  RH WIND       PRES   REMARKS
COLUMBUS       PTSUNNY   86  68  54 CALM      30.11F
OSU AIRPORT    MOSUNNY   85  67  54 SW7       30.12F
BOLTON FIELD   MOSUNNY   84  72  65 S5        30.13F
RICKENBACK AFB MOSUNNY   84  67  56 SW3       30.11F
NEWARK         PTSUNNY   84  68  58 SW6       30.12F
MARION         PTSUNNY   83  67  58 NW5       30.12F
LANCASTER      SUNNY     86  67  52 S6        30.13F
ZANESVILLE     PTSUNNY   85  64  49 W7        30.12F
NEW PHILLY     PTSUNNY   84  67  56 W5        30.12F
$$



USA.gov is the U.S. government's official web portal to all federal, state and local government web resources and services.